EN

Hourly Weather Abzac

Today, 14 May, Friday

Time Temperature Precipitation Wind Pressure Humidity
00:00 +7°C° 0 mm 2 mps 757 mmHg 96%
01:00 +7°C° 0.1 mm 2 mps 757 mmHg 96%
02:00 +7°C° 0.1 mm 2 mps 757 mmHg 97%
03:00 +7°C° 0.1 mm 2 mps 757 mmHg 97%
04:00 +8°C° 0.1 mm 2 mps 757 mmHg 96%
05:00 +8°C° 0.1 mm 2 mps 758 mmHg 96%
06:00 +9°C° 0 mm 2 mps 758 mmHg 95%
07:00 +10°C° 0.1 mm 3 mps 758 mmHg 85%
08:00 +12°C° 0.1 mm 3 mps 759 mmHg 75%
09:00 +14°C° 0.1 mm 4 mps 759 mmHg 66%
10:00 +15°C° 0.1 mm 5 mps 759 mmHg 59%
11:00 +16°C° 0.1 mm 5 mps 759 mmHg 53%
12:00 +17°C° 0.1 mm 5 mps 759 mmHg 47%
13:00 +17°C° 0 mm 5 mps 759 mmHg 47%
14:00 +17°C° 0 mm 5 mps 759 mmHg 47%
15:00 +17°C° 0 mm 5 mps 759 mmHg 47%
16:00 +16°C° 0 mm 5 mps 759 mmHg 53%
17:00 +15°C° 0 mm 4 mps 759 mmHg 59%
18:00 +14°C° 0 mm 3 mps 759 mmHg 65%
19:00 +13°C° 0 mm 3 mps 759 mmHg 70%
20:00 +13°C° 0 mm 2 mps 759 mmHg 75%
21:00 +12°C° 0 mm 2 mps 759 mmHg 80%
22:00 +11°C° 0.3 mm 3 mps 758 mmHg 84%
23:00 +10°C° 0.3 mm 3 mps 758 mmHg 88%

Tomorrow, 15 May, Saturday

Time Temperature Precipitation Wind Pressure Humidity
00:00 +10°C° 0.3 mm 4 mps 757 mmHg 93%
01:00 +10°C° 1.2 mm 4 mps 756 mmHg 94%
02:00 +10°C° 1.2 mm 4 mps 756 mmHg 95%
03:00 +10°C° 1.2 mm 4 mps 755 mmHg 96%
04:00 +10°C° 0.8 mm 4 mps 755 mmHg 96%
05:00 +11°C° 0.8 mm 4 mps 755 mmHg 97%
06:00 +11°C° 0.8 mm 3 mps 755 mmHg 97%
07:00 +11°C° 1.2 mm 3 mps 755 mmHg 97%
08:00 +12°C° 1.2 mm 3 mps 755 mmHg 97%
09:00 +13°C° 1.2 mm 2 mps 755 mmHg 98%
10:00 +13°C° 1 mm 2 mps 755 mmHg 97%
11:00 +13°C° 1 mm 2 mps 755 mmHg 96%
12:00 +14°C° 1 mm 2 mps 756 mmHg 96%
13:00 +14°C° 0.3 mm 2 mps 756 mmHg 95%
14:00 +13°C° 0.3 mm 3 mps 756 mmHg 93%
15:00 +14°C° 0.3 mm 3 mps 756 mmHg 92%
16:00 +14°C° 0.2 mm 3 mps 756 mmHg 94%
17:00 +14°C° 0.2 mm 2 mps 756 mmHg 95%
18:00 +14°C° 0.2 mm 2 mps 756 mmHg 96%
19:00 +14°C° 0.3 mm 2 mps 756 mmHg 97%
20:00 +13°C° 0.3 mm 2 mps 756 mmHg 98%
21:00 +13°C° 0.3 mm 2 mps 756 mmHg 99%
22:00 +13°C° 0.5 mm 2 mps 756 mmHg 98%
23:00 +13°C° 0.5 mm 2 mps 756 mmHg 98%

Day after tomorrow, 16 May, Sunday

Time Temperature Precipitation Wind Pressure Humidity
00:00 +14°C° 0.5 mm 2 mps 755 mmHg 98%
01:00 +14°C° 0.5 mm 2 mps 755 mmHg 98%
02:00 +13°C° 0.5 mm 3 mps 755 mmHg 98%
03:00 +13°C° 0.5 mm 3 mps 755 mmHg 98%
04:00 +13°C° 0.3 mm 3 mps 755 mmHg 98%
05:00 +13°C° 0.3 mm 3 mps 755 mmHg 97%
06:00 +13°C° 0.3 mm 3 mps 755 mmHg 97%
07:00 +14°C° 0.2 mm 4 mps 756 mmHg 94%
08:00 +15°C° 0.2 mm 4 mps 756 mmHg 90%
09:00 +15°C° 0.2 mm 5 mps 756 mmHg 87%
10:00 +16°C° 0.2 mm 6 mps 756 mmHg 76%
11:00 +17°C° 0.2 mm 6 mps 756 mmHg 65%
12:00 +19°C° 0.2 mm 6 mps 756 mmHg 55%
13:00 +19°C° 0 mm 6 mps 757 mmHg 54%
14:00 +17°C° 0 mm 6 mps 757 mmHg 54%
15:00 +17°C° 0 mm 6 mps 757 mmHg 53%
16:00 +16°C° 0 mm 6 mps 757 mmHg 58%
17:00 +15°C° 0 mm 5 mps 757 mmHg 63%
18:00 +14°C° 0 mm 5 mps 758 mmHg 68%
19:00 +13°C° 0 mm 4 mps 758 mmHg 75%
20:00 +12°C° 0 mm 4 mps 759 mmHg 82%
21:00 +10°C° 0 mm 3 mps 759 mmHg 90%
22:00 +10°C° 0 mm 3 mps 759 mmHg 91%
23:00 +10°C° 0 mm 3 mps 759 mmHg 93%

17 May, Monday

Time Temperature Precipitation Wind Pressure Humidity
00:00 +10°C° 0 mm 3 mps 759 mmHg 95%
01:00 +10°C° 0 mm 3 mps 759 mmHg 95%
02:00 +9°C° 0 mm 3 mps 759 mmHg 95%
03:00 +9°C° 0 mm 3 mps 759 mmHg 95%
04:00 +10°C° 0 mm 3 mps 759 mmHg 94%
05:00 +10°C° 0 mm 3 mps 759 mmHg 92%
06:00 +11°C° 0 mm 3 mps 760 mmHg 91%
07:00 +12°C° 0.1 mm 4 mps 760 mmHg 82%
08:00 +14°C° 0.1 mm 5 mps 760 mmHg 72%
09:00 +15°C° 0.1 mm 6 mps 760 mmHg 63%
10:00 +16°C° 0.1 mm 6 mps 760 mmHg 60%
11:00 +16°C° 0.1 mm 7 mps 760 mmHg 57%
12:00 +17°C° 0.1 mm 7 mps 761 mmHg 53%
13:00 +17°C° 0.1 mm 7 mps 761 mmHg 54%
14:00 +16°C° 0.1 mm 7 mps 761 mmHg 54%
15:00 +16°C° 0.1 mm 7 mps 761 mmHg 55%
16:00 +15°C° 0 mm 7 mps 761 mmHg 60%
17:00 +15°C° 0 mm 6 mps 762 mmHg 64%
18:00 +14°C° 0 mm 5 mps 762 mmHg 69%
19:00 +12°C° 0 mm 5 mps 763 mmHg 75%
20:00 +11°C° 0 mm 4 mps 763 mmHg 82%
21:00 +10°C° 0 mm 3 mps 764 mmHg 89%
22:00 +9°C° 0 mm 3 mps 764 mmHg 91%
23:00 +9°C° 0 mm 3 mps 764 mmHg 93%

18 May, Tuesday

Time Temperature Precipitation Wind Pressure Humidity
00:00 +8°C° 0 mm 2 mps 764 mmHg 95%
01:00 +8°C° 0 mm 2 mps 764 mmHg 95%
02:00 +8°C° 0 mm 2 mps 765 mmHg 95%
03:00 +8°C° 0 mm 2 mps 765 mmHg 95%
04:00 +9°C° 0 mm 2 mps 765 mmHg 94%
05:00 +9°C° 0 mm 2 mps 765 mmHg 92%
06:00 +10°C° 0 mm 2 mps 766 mmHg 91%
07:00 +13°C° 0.1 mm 2 mps 766 mmHg 82%
08:00 +14°C° 0.1 mm 2 mps 766 mmHg 72%
09:00 +16°C° 0.1 mm 3 mps 766 mmHg 63%
10:00 +17°C° 0 mm 3 mps 766 mmHg 57%
11:00 +18°C° 0 mm 3 mps 765 mmHg 52%
12:00 +19°C° 0 mm 3 mps 765 mmHg 46%
13:00 +19°C° 0 mm 3 mps 765 mmHg 46%
14:00 +19°C° 0 mm 3 mps 765 mmHg 45%
15:00 +19°C° 0 mm 3 mps 765 mmHg 44%
16:00 +18°C° 0 mm 3 mps 765 mmHg 50%
17:00 +17°C° 0 mm 3 mps 765 mmHg 56%
18:00 +16°C° 0 mm 3 mps 765 mmHg 62%
19:00 +14°C° 0 mm 2 mps 765 mmHg 70%
20:00 +12°C° 0 mm 2 mps 766 mmHg 78%
21:00 +9°C° 0 mm 2 mps 766 mmHg 86%
22:00 +10°C° 0 mm 1 mps 766 mmHg 88%
23:00 +9°C° 0 mm 1 mps 766 mmHg 90%

19 May, Wednesday

Time Temperature Precipitation Wind Pressure Humidity
00:00 +9°C° 0 mm 1 mps 766 mmHg 92%
01:00 +9°C° 0 mm 1 mps 766 mmHg 92%
02:00 +8°C° 0 mm 1 mps 766 mmHg 93%
03:00 +8°C° 0 mm 1 mps 766 mmHg 93%
04:00 +9°C° 0 mm 1 mps 766 mmHg 91%
05:00 +9°C° 0 mm 0 mps 766 mmHg 89%
06:00 +10°C° 0 mm 0 mps 766 mmHg 87%
07:00 +13°C° 0 mm 1 mps 766 mmHg 78%
08:00 +15°C° 0 mm 1 mps 766 mmHg 68%
09:00 +18°C° 0 mm 1 mps 766 mmHg 58%
10:00 +19°C° 0 mm 1 mps 766 mmHg 54%
11:00 +20°C° 0 mm 1 mps 766 mmHg 49%
12:00 +21°C° 0 mm 1 mps 766 mmHg 45%
13:00 +22°C° 0 mm 1 mps 765 mmHg 45%
14:00 +21°C° 0 mm 2 mps 765 mmHg 45%
15:00 +23°C° 0 mm 2 mps 764 mmHg 45%
16:00 +22°C° 0 mm 1 mps 764 mmHg 51%
17:00 +21°C° 0 mm 1 mps 764 mmHg 58%
18:00 +20°C° 0 mm 1 mps 763 mmHg 64%
19:00 +19°C° 0 mm 1 mps 764 mmHg 65%
20:00 +16°C° 0 mm 0 mps 764 mmHg 67%
21:00 +15°C° 0 mm 0 mps 764 mmHg 68%
22:00 +15°C° 0 mm 1 mps 764 mmHg 70%
23:00 +14°C° 0 mm 1 mps 763 mmHg 72%
Show more